GW5123 Weather Reports


time (UTC)temp
C
wind
direction
speed
KPH
gust
KPH
rain 1hr
cm
rain 24hr
cm
rain mn
cm
humidity
%
barometer
mb
20260505034605 15 213 0.0 3.2 0.00 0.10 0.10 59 1011.3
20260505034102 14 5 6.4 6.4 0.00 0.10 0.10 58 1011.2
20260505033559 14 234 3.2 4.8 0.00 0.10 0.10 62 1011.2
20260505033058 15 243 1.6 3.2 0.00 0.10 0.10 60 1011.4
20260505032555 15 291 3.2 4.8 0.00 0.10 0.10 58 1011.2
20260505032051 15 200 0.0 1.6 0.00 0.10 0.10 60 1011.2
20260505031549 14 263 0.0 0.0 0.00 0.10 0.10 61 1011.0
20260505031045 14 239 0.0 1.6 0.00 0.10 0.10 61 1010.9
20260505030542 14 245 0.0 0.0 0.00 0.10 0.10 61 1010.8
20260505030038 15 226 3.2 4.8 0.00 0.10 0.10 58 1011.2
20260505025533 14 132 0.0 6.4 0.00 0.10 0.10 59 1011.2
20260505025033 14 248 0.0 3.2 0.00 0.10 0.10 62 1011.3
20260505024529 14 271 0.0 3.2 0.00 0.10 0.10 65 1011.0
20260505024026 14 254 0.0 3.2 0.00 0.10 0.10 64 1011.2
20260505023523 14 234 0.0 3.2 0.00 0.10 0.10 64 1011.2
20260505023021 14 219 0.0 3.2 0.00 0.10 0.10 65 1011.3
20260505022519 14 230 3.2 3.2 0.00 0.10 0.10 65 1011.3
20260505022015 15 207 1.6 1.6 0.00 0.10 0.10 63 1011.2
20260505021512 14 236 0.0 0.0 0.00 0.10 0.10 65 1011.2
20260505021008 15 225 0.0 0.0 0.00 0.10 0.10 62 1011.0
20260505020503 15 220 0.0 0.0 0.00 0.10 0.10 63 1011.0
20260505020000 14 284 0.0 0.0 0.00 0.10 0.10 66 1011.3
20260505015457 14 249 0.0 0.0 0.00 0.10 0.10 65 1011.2
20260505014954 15 229 0.0 0.0 0.00 0.10 0.10 64 1011.2
20260505014451 15 223 0.0 1.6 0.00 0.10 0.10 65 1010.9
20260505013948 15 278 1.6 1.6 0.00 0.10 0.10 63 1010.9
20260505013445 15 254 0.0 0.0 0.00 0.10 0.10 66 1011.0
20260505012943 15 255 0.0 0.0 0.00 0.10 0.10 67 1011.0
20260505012441 15 234 0.0 3.2 0.00 0.10 0.10 65 1011.2
20260505011937 15 206 0.0 0.0 0.00 0.10 0.10 65 1011.0
20260505011433 15 214 0.0 0.0 0.00 0.10 0.10 65 1011.0
20260505010930 15 283 0.0 0.0 0.00 0.10 0.10 66 1011.0
20260505010426 15 246 0.0 0.0 0.00 0.10 0.10 67 1011.0
20260505005922 15 257 0.0 0.0 0.00 0.10 0.10 68 1010.9
20260505005419 15 248 0.0 0.0 0.00 0.10 0.10 68 1011.0
20260505004916 15 260 0.0 0.0 0.00 0.10 0.10 70 1010.9
20260505004413 15 219 0.0 0.0 0.00 0.10 0.10 69 1011.2
20260505003910 15 267 0.0 0.0 0.00 0.10 0.10 69 1010.9
20260505003407 15 276 0.0 0.0 0.00 0.10 0.10 69 1010.6
20260505002903 15 279 0.0 0.0 0.00 0.10 0.10 68 1010.7
20260505002400 15 250 0.0 0.0 0.00 0.10 0.10 67 1010.8
20260505001858 15 284 0.0 0.0 0.00 0.10 0.10 66 1010.8
20260505001355 16 289 0.0 0.0 0.00 0.10 0.10 65 1010.7
20260505000853 16 244 0.0 0.0 0.00 0.10 0.10 64 1010.8
20260505000351 16 219 0.0 0.0 0.00 0.10 0.10 62 1010.7
20260504235846 16 216 0.0 0.0 0.00 0.10 0.10 62 1010.6
20260504235344 17 237 0.0 0.0 0.00 0.10 0.10 61 1010.6
20260504234840 17 359 0.0 1.6 0.00 0.10 0.10 60 1010.5
20260504234338 17 211 0.0 3.2 0.00 0.10 0.10 60 1010.5
20260504233834 17 207 3.2 3.2 0.00 0.10 0.10 59 1010.6
20260504233330 17 220 0.0 0.0 0.00 0.10 0.10 59 1010.6
20260504232827 18 102 4.8 4.8 0.00 0.10 0.10 57 1010.6
20260504232324 18 90 0.0 3.2 0.00 0.10 0.10 58 1010.7
20260504231821 18 114 6.4 12.9 0.00 0.10 0.10 56 1010.7
20260504231317 18 113 1.6 3.2 0.00 0.10 0.10 55 1010.7
20260504230813 18 192 3.2 4.8 0.00 0.10 0.10 55 1010.8
20260504230311 18 293 3.2 3.2 0.00 0.10 0.10 56 1010.7
20260504225810 18 262 0.0 4.8 0.00 0.10 0.10 54 1010.8
20260504225306 18 77 1.6 9.7 0.00 0.10 0.10 53 1011.0
20260504224803 18 77 0.0 0.0 0.00 0.10 0.10 55 1011.0
20260504224300 18 201 0.0 1.6 0.00 0.10 0.10 55 1011.0
20260504223757 18 35 3.2 4.8 0.00 0.10 0.10 54 1010.9
20260504223252 18 331 0.0 1.6 0.00 0.10 0.10 57 1011.0
20260504222749 18 30 1.6 11.3 0.00 0.10 0.10 54 1011.0
20260504222246 18 255 3.2 9.7 0.00 0.10 0.10 53 1011.0
20260504221744 18 119 0.0 3.2 0.00 0.10 0.10 54 1011.0
20260504221241 18 33 3.2 6.4 0.00 0.10 0.10 53 1011.2
20260504220738 18 352 6.4 9.7 0.00 0.10 0.10 52 1011.4
20260504220235 18 300 3.2 4.8 0.00 0.10 0.10 55 1011.2
20260504215732 17 254 4.8 6.4 0.00 0.10 0.10 55 1011.3
20260504215228 18 257 1.6 4.8 0.00 0.10 0.10 53 1011.4
20260504214724 17 90 1.6 4.8 0.00 0.10 0.10 56 1011.3
20260504214221 17 270 4.8 6.4 0.00 0.10 0.10 55 1011.4
20260504213718 18 66 3.2 6.4 0.00 0.10 0.10 54 1011.4
20260504213214 18 76 1.6 6.4 0.00 0.10 0.10 56 1011.3
20260504212711 18 19 0.0 3.2 0.00 0.10 0.10 56 1011.3
20260504212208 17 99 3.2 4.8 0.00 0.10 0.10 58 1011.5
20260504211705 17 50 4.8 6.4 0.00 0.10 0.10 56 1011.8
20260504211201 17 348 3.2 4.8 0.00 0.10 0.10 56 1011.8
20260504210659 17 92 1.6 9.7 0.00 0.10 0.10 56 1011.5
20260504210155 17 333 4.8 12.9 0.00 0.10 0.10 54 1011.4
20260504205653 17 23 1.6 14.5 0.00 0.10 0.10 59 1011.2
20260504205150 17 39 1.6 4.8 0.00 0.10 0.10 54 1011.2
20260504204648 17 342 6.4 12.9 0.00 0.10 0.10 54 1011.2
20260504204147 17 90 0.0 3.2 0.00 0.10 0.10 54 1010.9
20260504203645 18 52 3.2 3.2 0.00 0.10 0.10 54 1010.9
20260504203143 18 110 3.2 3.2 0.00 0.10 0.10 50 1011.0
20260504202643 18 331 3.2 4.8 0.00 0.10 0.10 52 1011.2
20260504202140 18 66 8.0 20.9 0.00 0.10 0.10 49 1011.2
20260504201637 18 289 4.8 14.5 0.00 0.10 0.10 48 1011.2
20260504201135 18 299 3.2 11.3 0.00 0.10 0.10 48 1011.4
20260504200631 20 10 6.4 12.9 0.00 0.10 0.10 47 1011.4
20260504200128 20 122 3.2 6.4 0.00 0.10 0.10 47 1011.0
20260504195624 20 261 6.4 16.1 0.00 0.10 0.10 49 1011.3
20260504195120 20 10 6.4 20.9 0.00 0.10 0.10 47 1011.4
20260504194617 20 51 3.2 9.7 0.00 0.10 0.10 50 1011.5
20260504194113 20 111 9.7 14.5 0.00 0.10 0.10 47 1011.3
20260504193609 19 23 1.6 12.9 0.00 0.10 0.10 46 1011.3
20260504193108 20 226 4.8 16.1 0.00 0.10 0.10 49 1011.2
20260504192606 20 34 9.7 11.3 0.00 0.10 0.10 47 1011.4
20260504192104 20 7 9.7 17.7 0.00 0.10 0.10 47 1011.2
20260504191602 20 21 1.6 9.7 0.00 0.10 0.10 47 1011.3
20260504191057 20 14 1.6 12.9 0.00 0.10 0.10 49 1011.0
20260504190553 20 279 9.7 16.1 0.00 0.10 0.10 46 1011.4
20260504190050 19 297 6.4 24.1 0.00 0.10 0.10 50 1011.5
20260504185547 18 59 9.7 12.9 0.00 0.10 0.10 50 1011.6
20260504185043 18 220 4.8 16.1 0.00 0.10 0.10 52 1011.3
20260504184539 19 25 6.4 11.3 0.00 0.10 0.10 49 1011.4
20260504184034 19 51 3.2 12.9 0.00 0.10 0.10 50 1011.6
20260504183532 18 27 11.3 25.7 0.00 0.10 0.10 50 1011.5
20260504183030 18 144 6.4 6.4 0.00 0.10 0.10 50 1011.7
20260504182526 19 345 6.4 11.3 0.00 0.10 0.10 47 1011.6
20260504182024 19 334 11.3 16.1 0.00 0.10 0.10 48 1011.7
20260504181521 18 9 1.6 6.4 0.00 0.10 0.10 51 1011.9
20260504181020 18 62 4.8 11.3 0.00 0.10 0.10 51 1011.8
20260504180518 18 48 12.9 20.9 0.00 0.10 0.10 49 1012.2
20260504180016 18 260 6.4 12.9 0.00 0.10 0.10 55 1011.9
20260504175513 18 322 11.3 17.7 0.00 0.10 0.10 49 1012.2
20260504175010 19 272 1.6 14.5 0.00 0.10 0.10 55 1012.4
20260504174508 18 38 4.8 22.5 0.00 0.10 0.10 50 1012.3
20260504174005 18 114 3.2 12.9 0.00 0.10 0.10 52 1012.2
20260504173501 17 77 17.7 24.1 0.00 0.10 0.10 52 1012.4
20260504172959 17 72 14.5 17.7 0.00 0.10 0.10 53 1012.4
20260504172454 17 83 6.4 9.7 0.00 0.10 0.10 56 1012.1
20260504171951 17 76 1.6 9.7 0.00 0.10 0.10 59 1012.2
20260504171448 17 312 8.0 11.3 0.00 0.10 0.10 55 1012.8
20260504170945 17 71 3.2 9.7 0.00 0.10 0.10 61 1012.8
20260504170441 16 336 3.2 6.4 0.00 0.10 0.10 55 1012.9
20260504160401 13 18 3.2 6.4 0.00 0.10 0.10 61 1014.2
20260504150825 14 76 4.8 9.7 0.00 0.10 0.10 58 1014.0
20260504150322 14 172 3.2 11.3 0.00 0.10 0.10 57 1013.9
20260504141252 13 276 1.6 14.5 0.00 0.10 0.10 59 1014.0
20260504140748 13 28 4.8 20.9 0.00 0.10 0.10 57 1013.8
20260504140244 13 2 6.4 12.9 0.00 0.10 0.10 59 1014.3
20260504130713 12 18 4.8 12.9 0.00 0.10 0.10 61 1013.8
20260504130209 12 243 0.0 1.6 0.00 0.10 0.10 70 1013.8
20260504120133 8 261 1.6 3.2 0.00 0.10 0.10 81 1013.9
20260504110600 3 278 0.0 0.0 0.00 0.10 0.10 99 1013.8
20260504100522 3 288 0.0 0.0 0.00 0.10 0.10 99 1014.0
20260504081915 5 283 0.0 0.0 0.00 0.10 0.10 97 1014.2
20260504081412 5 272 0.0 0.0 0.00 0.10 0.10 97 1014.3
20260504080908 5 272 0.0 0.0 0.00 0.10 0.10 97 1014.2
20260504080405 5 272 0.0 0.0 0.00 0.10 0.10 97 1014.2
20260504070332 5 263 0.0 0.0 0.18 0.10 0.10 96 1014.5
20260504050721 5 351 0.0 0.0 0.00 0.00 0.00 67 1015.2
20260504050217 5 351 0.0 0.0 0.00 0.00 0.00 66 1014.9
20260504045715 5 305 0.0 0.0 0.00 0.00 0.00 67 1015.0
20260504045215 5 261 0.0 0.0 0.00 0.00 0.00 71 1014.8
20260504044713 5 261 0.0 0.0 0.00 0.00 0.00 70 1015.0
20260504044210 5 278 0.0 0.0 0.00 0.00 0.00 69 1015.0
20260504043707 5 272 0.0 0.0 0.00 0.00 0.00 67 1014.8
20260504043204 5 275 0.0 0.0 0.00 0.00 0.00 65 1015.0
20260504042701 6 276 0.0 0.0 0.00 0.00 0.00 65 1014.8
20260504042158 6 272 0.0 0.0 0.00 0.00 0.00 62 1014.9
20260504041654 6 249 0.0 0.0 0.00 0.00 0.00 64 1014.8
20260504041150 6 300 0.0 0.0 0.00 0.00 0.00 63 1014.9
20260504040647 6 315 0.0 0.0 0.00 0.00 0.00 63 1014.8
20260504040144 6 288 0.0 0.0 0.00 0.00 0.00 63 1014.7
20260504035640 6 357 0.0 0.0 0.00 0.00 0.00 68 1014.8
20260504035137 6 294 0.0 0.0 0.00 0.00 0.00 59 1014.9